OBJECT J, 100137

Orbit data source: Space-Track

You're viewing an uncataloged RSO

Recently launched and/or uncataloged RSOs may have evolving metadata. Metadata may include the following, but is not limited to: Owner, Manufacturer, Bus, Motor, and Mission.

OBJECT J, 100137 is a Chinese satellite in SSO that was launched on Wed, 22 Jul 2026 UTC launched from the Yellow Sea Launch Area, China (YSLA). Unknown objects in Earth's orbit typically refer to objects detected orbiting the Earth but have not yet been identified or cataloged. These objects could be anything from previously untracked satellites, spent rocket stages, debris from satellite collisions, or even natural meteoroids temporarily captured by Earth's gravity.

Loading next visibility...
Identifier
100137, 2026-168J
Orbit
SSO
Country
Flag of CNCN / PRC
Related business
None
Manufacturer
Unknown
Mission
Operational spacecraft
Bus & Motor
Unknown
Mass
Unknown
Launch date (UTC)
2026-07-22 (2 months ago)
Launch vehicle
Unknown
Launch site
Yellow Sea Launch Area, China (YSLA)
Object type
Unknown
Shape & HBR
Unknown shape, 1.1 m
Radar Cross Section
Large (>1 m²)

Expand to show TLE details & history
Last TLE update: 12 hours ago

TLE from 12 hours ago
0 OBJECT J
1 A0137U 26168J   26254.45506325  .00005266  00000-0  32452-3 0  9991
2 A0137  97.5371 335.3579 0021387 157.3136 202.9043 15.10203232  7733
Epoch: 2026-09-11T10:55Z
TLE epoch observation values (Epoch: 2026-09-11T10:55:17.464Z)
Latitude
-0.0001°
Longitude
-178.94303°
Altitude
552.281 km
Speed
7.578 km/s
True Right ascension
22h 21m 25s
True Declination
0° 00' 00"
Sunlit
Object was in full shadow at epoch
Visualization orbit readout
Latitude
Unknown
Longitude
Unknown
Altitude
Unknown
Speed
Unknown
Apparent Right ascension
Unknown
Apparent Declination
Unknown
Sunlit
N/A
Visualization observer readout
Local Sidereal Time
15:43:04
Azimuth
Unknown
Elevation
Unknown
Doppler factor
Unknown
Orbital elements
Apogee altitude
547.344 km
Perigee altitude
517.784 km
Semi-major axis
6,910.701 km
Eccentricity
0.00214
Inclination
97.5371°
RAAN
335.3579°
Arg. of periapsis
157.3136°
True anomaly
202.80915°
Mean anomaly
202.9043°
Eccentric anomaly
202.8567°
Mean motion
3.77798 °/min
Orbital period
95.29 mins
BSTAR
0.00032452
Loading maneuver chart data...
Computing Atmospheric mass density...
Loading historical data...
Loading historical data...
Loading historical data...
Loading historical data...
Loading historical data...
Loading historical data...
Loading historical data...

Documentation

Showing up to 5 results
|